• Join FlightAware (Why Join?)
  • Login
  • US Flag 
12:44AM EST


 

Airport Tracker/Info


-or-


 

Live Flight TrackerFlight Track Log ✈ ASQ5874 ✈ 08-Jun-2013 ✈ KORD - KLNK

Flight Track Log - Related Links

Times and Time Zones

All times are in EDT time to prevent confusion due to time zone crossing. See the ASQ5874 flight status page for this flight to view local times or setup timezone preferences in your user account.

Time Position Orientation Groundspeed Altitude Reporting Facility
EDT Latitude Longitude Course Direction KTS MPH feet Rate Location/Type
09:01AM 41.9333 -87.9167 261° West 181 208 1,900  Level Chicago TRACON
09:02AM 41.9000 -87.9667 228° Southwest 210 242 4,100 1,224 Climbing Chicago TRACON
09:04AM 41.8903 -88.1019 265° West 259 298 5,000 351 Climbing Chicago Center
09:05AM 41.9196 -88.4019 255° West  Level FlightAware Approximate
09:05AM 41.8858 -88.1994 267° West 265 305 5,000  Level Chicago Center
09:06AM 41.9094 -88.5289 261° West  Level FlightAware Approximate
09:06AM 41.8808 -88.3186 267° West 269 310 7,100  Level Chicago Center
09:07AM 41.8767 -88.4147 267° West 263 303 9,500 1,659 Climbing Chicago Center
09:08AM 41.8756 -88.5233 269° West 285 328 10,500 878 Climbing Chicago Center
09:09AM 41.8728 -88.6489 268° West 330 380 11,300 1,268 Climbing Chicago Center
09:10AM 41.8694 -88.7789 268° West 349 402 13,100 1,854 Climbing Chicago Center
09:11AM 41.8661 -88.9044 268° West 342 394 15,100 1,805 Climbing Chicago Center
09:12AM 41.8633 -89.0247 268° West 329 379 16,800 1,512 Climbing Chicago Center
09:13AM 41.8606 -89.1739 269° West 334 384 18,200 1,161 Climbing Chicago Center
09:14AM 41.8572 -89.3006 268° West 342 394 19,200 1,024 Climbing Chicago Center
09:15AM 41.8539 -89.4328 268° West 352 405 20,300 1,024 Climbing Chicago Center
09:16AM 41.8492 -89.5658 267° West 357 411 21,300 1,415 Climbing Chicago Center
09:17AM 41.8453 -89.6986 268° West 359 413 23,200 1,659 Climbing Chicago Center
09:18AM 41.8378 -89.8244 265° West 344 396 24,700 1,258 Climbing Chicago Center
09:19AM 41.8247 -89.9525 262° West 345 397 25,800 1,016 Climbing Chicago Center
09:20AM 41.8061 -90.1103 261° West 357 411 26,800 976 Climbing Chicago Center
09:21AM 41.7919 -90.2325 261° West 356 410 27,800 1,033 Climbing Chicago Center
09:22AM 41.7769 -90.3703 262° West 372 428 28,900 1,220 Climbing Chicago Center
09:23AM 41.7611 -90.5003 261° West 358 412 30,300 1,258 Climbing Chicago Center
09:24AM 41.7447 -90.6342 261° West 351 404 31,500 829 Climbing Chicago Center
09:25AM 41.7294 -90.7650 261° West 356 410 32,000 244 Climbing Chicago Center
09:26AM 41.7100 -90.9344 261° West 383 441 32,000  Level Chicago Center
09:27AM 41.6922 -91.0836 261° West 403 464 32,000  Level Chicago Center
09:28AM 41.6731 -91.2292 260° West 401 461 32,000  Level Chicago Center
09:29AM 41.6558 -91.3769 261° West 404 465 32,000  Level Chicago Center
09:30AM 41.6367 -91.5247 260° West 407 468 32,000  Level Chicago Center
09:31AM 41.6183 -91.6744 261° West 409 471 32,000  Level Chicago Center
09:32AM 41.5997 -91.8222 260° West 406 467 32,000  Level Chicago Center
09:34AM 41.5761 -92.0006 260° West 409 471 32,000  Level Chicago Center
09:35AM 41.5572 -92.1489 260° West 409 471 32,000  Level Chicago Center
09:36AM 41.5375 -92.2978 260° West 410 472 32,000  Level Chicago Center
09:37AM 41.5158 -92.4417 259° West 402 463 32,000  Level Chicago Center
09:38AM 41.4958 -92.5900 260° West 406 467 32,000  Level Chicago Center
09:39AM 41.4753 -92.7522 260° West 412 474 32,000  Level Minneapolis Center
09:40AM 41.4511 -92.9306 260° West 412 474 32,000  Level Minneapolis Center
09:41AM 41.4300 -93.0797 259° West 414 476 32,000  Level Minneapolis Center
09:42AM 41.4086 -93.2303 259° West 417 480 32,000  Level Minneapolis Center
09:43AM 41.3878 -93.3794 260° West 415 478 32,000  Level Minneapolis Center
09:44AM 41.3661 -93.5300 259° West 417 480 32,000  Level Minneapolis Center
09:45AM 41.3453 -93.6792 260° West 416 479 32,000  Level Minneapolis Center
09:46AM 41.3239 -93.8283 259° West 416 479 32,000  Level Minneapolis Center
09:47AM 41.2978 -94.0086 259° West 418 481 32,000 -585 Level Minneapolis Center
09:48AM 41.2736 -94.1575 258° West 417 480 30,800 -1,869 Descending Minneapolis Center
09:49AM 41.2503 -94.3172 259° West 415 478 28,200 -2,508 Descending Minneapolis Center
09:50AM 41.2281 -94.4736 259° West 424 488 25,700 -1,869 Descending Minneapolis Center
09:51AM 41.2019 -94.6336 258° West 438 504 24,400 -836 Descending Minneapolis Center
09:52AM 41.1775 -94.7906 258° West 436 502 24,000 -488 Descending Minneapolis Center
09:53AM 41.1531 -94.9478 258° West 435 501 23,400 -1,122 Descending Minneapolis Center
09:54AM 41.1281 -95.1028 258° West 433 498 21,700 -1,525 Descending Minneapolis Center
09:55AM 41.1036 -95.2478 257° West 411 473 20,300 -1,596 Descending Minneapolis Center
09:56AM 41.0978 -95.3364 265° West 403 464 19,200 -1,967 Descending Minneapolis Center
09:56AM 41.0806 -95.3931 248° West 404 465 18,300 -2,361 Descending Minneapolis Center
09:57AM 41.0728 -95.4861 264° West 385 443 16,800 -2,032 Descending Minneapolis Center
09:57AM 41.0589 -95.5308 248° West 388 447 16,200 -1,082 Descending Minneapolis Center
09:58AM 41.0483 -95.6164 261° West 359 413 15,700 -787 Descending Minneapolis Center
09:58AM 41.0364 -95.6603 250° West 366 421 15,400 -1,200 Descending Minneapolis Center
09:59AM 41.0239 -95.7492 259° West 372 428 14,500 -1,279 Descending Minneapolis Center
09:59AM 41.0144 -95.7956 255° West 370 426 14,100 -1,574 Descending Minneapolis Center
10:00AM 40.9992 -95.8792 256° West 357 411 12,900 -1,869 Descending Minneapolis Center
10:00AM 40.9936 -95.9247 261° West 361 415 12,200 -1,545 Descending Minneapolis Center
10:01AM 40.9747 -96.0172 255° West 354 407 11,200 -1,161 Descending Minneapolis Center
10:01AM 40.9717 -96.0519 263° West 355 409 11,000 -197 Descending Minneapolis Center
10:02AM 40.9517 -96.1467 254° West 346 398 11,000  Level Minneapolis Center
10:02AM 40.9514 -96.1769 269° West 348 400 11,000  Level Minneapolis Center
10:03AM 40.9317 -96.2567 252° West 341 392 11,000  Level Minneapolis Center
10:03AM 40.9267 -96.3203 264° West 333 383 11,000 -900 Level Minneapolis Center
10:04AM 40.9128 -96.3578 244° Southwest 255 293 10,100 -2,613 Descending Minneapolis Center
10:04AM 40.9097 -96.4150 266° West 279 321 8,300 -2,852 Descending Minneapolis Center
10:05AM 40.8936 -96.4536 241° Southwest 276 318 7,200 -1,967 Descending Minneapolis Center
10:05AM 40.8719 -96.4914 233° Southwest 262 302 6,300 -1,900 Descending Minneapolis Center
10:06AM 40.8406 -96.5089 203° Southwest 232 267 5,300 -1,279 Descending Minneapolis Center
10:06AM 40.8256 -96.5492 244° Southwest 239 275 5,000 -295 Descending Minneapolis Center
10:07AM 40.8289 -96.5900 276° West 276 318 5,000  Level Minneapolis Center